sat.trackr.live / text

‹ back to catalog

STARLINK-5672

NORAD 55468 · 2023-015V

PAYLOAD ACTIVE UNKNOWN

§ Identity

Operator
Country
US
Launch date
2023-02-02
Launch site
AFETR
Launch vehicle
Mass (kg)
RCS (m²)

Purposes: comms

External: N2YO · Heavens-Above · Gunter

§ Orbital elements

Epoch: 2026-05-25T00:11:20.937408Z

Period
94.27 min
Inclination
42.9998°
Eccentricity
0.0001345
Mean motion
15.27568069 rev/d
Perigee alt
482.2 km
Apogee alt
484.0 km
Semi-major
6,861.2 km
B*
1.0166e-4
RAAN
257.7342°
Arg perigee
263.1482°
Mean anomaly
96.9216°
Rev number
18,239

§ Raw data

STARLINK-56721 55468U 23015V   26145.00788122  .00002535  00000+0  10166-3 0  99962 55468  42.9998 257.7342 0001345 263.1482  96.9216 15.27568069182395

JSON: /api/v1/satellites/55468 · /tle

For live sub-satellite position, see the globe view (requires WebGL).

§ Visibility from observer

Set your observer location to see the next 7 days of passes ≥ 10°. The values pass through the URL so the page stays shareable.

No JS? Fill the form by hand. The geolocation button needs JavaScript.